| time (UTC) | temp F | wind direction | speed MPH | gust MPH | rain 1hr in | rain 24hr in | rain mn in | humidity % | barometer mb |
| 20260504185047 | 39 | 337 | 15.0 | 26.0 | 0.00 | 0.01 | 0.01 | 51 | 974.4 |
| 20260504184555 | 39 | 355 | 17.0 | 27.0 | 0.00 | 0.01 | 0.01 | 50 | 974.4 |
| 20260504184047 | 38 | 336 | 18.0 | 27.0 | 0.00 | 0.01 | 0.01 | 52 | 974.4 |
| 20260504183547 | 39 | 360 | 17.0 | 25.0 | 0.00 | 0.01 | 0.01 | 51 | 974.4 |
| 20260504183046 | 39 | 341 | 18.0 | 27.0 | 0.00 | 0.01 | 0.01 | 51 | 974.4 |
| 20260504182548 | 39 | 323 | 19.0 | 28.0 | 0.00 | 0.01 | 0.01 | 50 | 974.4 |
| 20260504182046 | 39 | 334 | 18.0 | 26.0 | 0.00 | 0.01 | 0.01 | 50 | 974.3 |
| 20260504181546 | 40 | 360 | 16.0 | 26.0 | 0.00 | 0.01 | 0.01 | 49 | 974.4 |
| 20260504181044 | 40 | 351 | 18.0 | 24.0 | 0.00 | 0.01 | 0.01 | 48 | 974.1 |
| 20260504180547 | 40 | 286 | 17.0 | 28.0 | 0.00 | 0.01 | 0.01 | 49 | 974.1 |
| 20260504180045 | 38 | 300 | 16.0 | 27.0 | 0.00 | 0.01 | 0.01 | 50 | 974.0 |
| 20260504175545 | 39 | 343 | 18.0 | 28.0 | 0.00 | 0.01 | 0.01 | 49 | 974.1 |
| 20260504175144 | 39 | 312 | 19.0 | 28.0 | 0.00 | 0.01 | 0.01 | 49 | 973.9 |
| 20260504174543 | 38 | 330 | 15.0 | 26.0 | 0.00 | 0.01 | 0.01 | 48 | 973.9 |
| 20260504174043 | 37 | 296 | 14.0 | 27.0 | 0.00 | 0.01 | 0.01 | 49 | 973.9 |
| 20260504173544 | 37 | 284 | 17.0 | 27.0 | 0.00 | 0.01 | 0.01 | 49 | 973.9 |
| 20260504173043 | 36 | 313 | 16.0 | 27.0 | 0.00 | 0.01 | 0.01 | 51 | 973.9 |
| 20260504172541 | 36 | 311 | 18.0 | 27.0 | 0.00 | 0.01 | 0.01 | 51 | 973.8 |
| 20260504172044 | 37 | 315 | 14.0 | 26.0 | 0.00 | 0.01 | 0.01 | 51 | 973.5 |
| 20260504171542 | 36 | 319 | 15.0 | 23.0 | 0.00 | 0.01 | 0.01 | 55 | 973.7 |
| 20260504171039 | 36 | 325 | 14.0 | 25.0 | 0.00 | 0.01 | 0.01 | 59 | 973.7 |
| 20260504170540 | 35 | 321 | 16.0 | 29.0 | 0.00 | 0.01 | 0.01 | 55 | 973.6 |
| 20260504151019 | 40 | 348 | 20.0 | 29.0 | 0.00 | 0.01 | 0.01 | 43 | 972.2 |
| 20260504150524 | 40 | 297 | 19.0 | 28.0 | 0.00 | 0.01 | 0.01 | 42 | 972.2 |
| 20260504141013 | 38 | 267 | 13.0 | 24.0 | 0.00 | 0.01 | 0.01 | 50 | 972.0 |
| 20260504140508 | 38 | 263 | 15.0 | 27.0 | 0.00 | 0.01 | 0.01 | 49 | 971.8 |
| 20260504130501 | 37 | 323 | 17.0 | 24.0 | 0.00 | 0.01 | 0.01 | 52 | 971.2 |
| 20260504110543 | 36 | 301 | 14.0 | 28.0 | 0.00 | 0.01 | 0.01 | 53 | 969.4 |
| 20260504100533 | 37 | 306 | 16.0 | 29.0 | 0.00 | 0.01 | 0.01 | 56 | 968.7 |
| 20260504081516 | 39 | 306 | 17.0 | 27.0 | 0.00 | 0.01 | 0.01 | 55 | 966.9 |
| 20260504081019 | 39 | 279 | 15.0 | 30.0 | 0.00 | 0.01 | 0.01 | 55 | 966.8 |
| 20260504080514 | 39 | 294 | 19.0 | 29.0 | 0.00 | 0.01 | 0.01 | 54 | 966.7 |
| 20260504050537 | 49 | 291 | 11.0 | 19.0 | 0.01 | 0.01 | 0.01 | 49 | 964.2 |
| 20260504045535 | 49 | 279 | 8.0 | 12.0 | 0.00 | 0.00 | 0.00 | 49 | 964.0 |
| 20260504045035 | 49 | 257 | 8.0 | 15.0 | 0.00 | 0.00 | 0.00 | 49 | 963.9 |
| 20260504044537 | 49 | 242 | 8.0 | 15.0 | 0.00 | 0.00 | 0.00 | 49 | 963.9 |
| 20260504044036 | 48 | 255 | 9.0 | 13.0 | 0.00 | 0.00 | 0.00 | 49 | 963.8 |
| 20260504043536 | 48 | 255 | 7.0 | 13.0 | 0.00 | 0.00 | 0.00 | 50 | 963.9 |
| 20260504043037 | 48 | 264 | 8.0 | 13.0 | 0.00 | 0.00 | 0.00 | 49 | 964.0 |
| 20260504042535 | 48 | 234 | 8.0 | 14.0 | 0.00 | 0.00 | 0.00 | 49 | 964.0 |
| 20260504042034 | 48 | 360 | 9.0 | 14.0 | 0.00 | 0.00 | 0.00 | 51 | 964.0 |
| 20260504041534 | 47 | 232 | 7.0 | 12.0 | 0.00 | 0.00 | 0.00 | 54 | 964.1 |
| 20260504041034 | 47 | 240 | 6.0 | 10.0 | 0.00 | 0.00 | 0.00 | 53 | 964.2 |
| 20260504040537 | 48 | 360 | 6.0 | 11.0 | 0.00 | 0.00 | 0.00 | 52 | 964.2 |
| 20260504040034 | 48 | 240 | 8.0 | 11.0 | 0.00 | 0.00 | 0.00 | 50 | 964.2 |
| 20260504035534 | 48 | 226 | 5.0 | 9.0 | 0.00 | 0.00 | 0.00 | 51 | 964.1 |
| 20260504035034 | 48 | 242 | 6.0 | 9.0 | 0.00 | 0.00 | 0.00 | 51 | 964.1 |
| 20260504034534 | 49 | 240 | 5.0 | 11.0 | 0.00 | 0.00 | 0.00 | 51 | 964.2 |
| 20260504034037 | 48 | 252 | 5.0 | 13.0 | 0.00 | 0.00 | 0.00 | 50 | 964.0 |
| 20260504033533 | 48 | 239 | 4.0 | 21.0 | 0.00 | 0.00 | 0.00 | 51 | 964.3 |
| 20260504033040 | 47 | 226 | 10.0 | 21.0 | 0.00 | 0.00 | 0.00 | 54 | 964.9 |
| 20260504032537 | 47 | 248 | 7.0 | 15.0 | 0.00 | 0.00 | 0.00 | 55 | 965.1 |
| 20260504032035 | 47 | 246 | 10.0 | 17.0 | 0.00 | 0.00 | 0.00 | 55 | 965.1 |
| 20260504031533 | 48 | 255 | 10.0 | 20.0 | 0.00 | 0.00 | 0.00 | 56 | 965.3 |
| 20260504031032 | 48 | 294 | 12.0 | 21.0 | 0.00 | 0.00 | 0.00 | 56 | 965.7 |
| 20260504030532 | 49 | 257 | 11.0 | 22.0 | 0.00 | 0.00 | 0.00 | 56 | 966.0 |
| 20260504030033 | 49 | 280 | 16.0 | 29.0 | 0.00 | 0.00 | 0.00 | 55 | 966.1 |
| 20260504025532 | 50 | 290 | 19.0 | 31.0 | 0.00 | 0.00 | 0.00 | 54 | 966.1 |
| 20260504025034 | 52 | 284 | 18.0 | 28.0 | 0.00 | 0.00 | 0.00 | 50 | 965.9 |
| 20260504024541 | 53 | 263 | 19.0 | 28.0 | 0.00 | 0.00 | 0.00 | 46 | 965.8 |
| 20260504024032 | 54 | 267 | 20.0 | 29.0 | 0.00 | 0.00 | 0.00 | 45 | 965.6 |
| 20260504023532 | 54 | 269 | 17.0 | 33.0 | 0.00 | 0.00 | 0.00 | 45 | 965.6 |
| 20260504023032 | 55 | 291 | 20.0 | 35.0 | 0.00 | 0.00 | 0.00 | 42 | 965.3 |
| 20260504022535 | 57 | 269 | 21.0 | 35.0 | 0.00 | 0.00 | 0.00 | 39 | 965.1 |
| 20260504022032 | 58 | 285 | 15.0 | 28.0 | 0.00 | 0.00 | 0.00 | 37 | 964.9 |
| 20260504021532 | 59 | 277 | 15.0 | 33.0 | 0.00 | 0.00 | 0.00 | 34 | 964.6 |
| 20260504021030 | 59 | 263 | 14.0 | 33.0 | 0.00 | 0.00 | 0.00 | 32 | 964.3 |
| 20260504020530 | 59 | 285 | 15.0 | 26.0 | 0.00 | 0.00 | 0.00 | 30 | 964.4 |
| 20260504020030 | 60 | 286 | 12.0 | 20.0 | 0.00 | 0.00 | 0.00 | 31 | 964.2 |
| 20260504015530 | 60 | 360 | 10.0 | 16.0 | 0.00 | 0.00 | 0.00 | 30 | 964.1 |
| 20260504015033 | 61 | 306 | 9.0 | 18.0 | 0.00 | 0.00 | 0.00 | 30 | 964.0 |
| 20260504014530 | 61 | 360 | 12.0 | 23.0 | 0.00 | 0.00 | 0.00 | 28 | 964.1 |
| 20260504014032 | 61 | 302 | 13.0 | 20.0 | 0.00 | 0.00 | 0.00 | 28 | 964.0 |
| 20260504013531 | 61 | 306 | 11.0 | 20.0 | 0.00 | 0.00 | 0.00 | 29 | 964.0 |
| 20260504013037 | 61 | 288 | 10.0 | 18.0 | 0.00 | 0.00 | 0.00 | 29 | 964.0 |
| 20260504012531 | 61 | 296 | 10.0 | 18.0 | 0.00 | 0.00 | 0.00 | 28 | 963.9 |
| 20260504012030 | 62 | 360 | 11.0 | 18.0 | 0.00 | 0.00 | 0.00 | 27 | 963.7 |
| 20260504011530 | 62 | 360 | 10.0 | 16.0 | 0.00 | 0.00 | 0.00 | 27 | 963.7 |
| 20260504011032 | 63 | 360 | 10.0 | 19.0 | 0.00 | 0.00 | 0.00 | 26 | 963.7 |
| 20260504010530 | 63 | 360 | 13.0 | 20.0 | 0.00 | 0.00 | 0.00 | 25 | 963.7 |
| 20260504010029 | 64 | 360 | 11.0 | 20.0 | 0.00 | 0.00 | 0.00 | 26 | 963.7 |
| 20260504005528 | 64 | 360 | 7.0 | 14.0 | 0.00 | 0.00 | 0.00 | 28 | 963.7 |
| 20260504005028 | 65 | 302 | 7.0 | 22.0 | 0.00 | 0.00 | 0.00 | 26 | 963.6 |
| 20260504004528 | 65 | 282 | 12.0 | 22.0 | 0.00 | 0.00 | 0.00 | 24 | 963.5 |
| 20260504004027 | 66 | 276 | 10.0 | 17.0 | 0.00 | 0.00 | 0.00 | 25 | 963.6 |
| 20260504003527 | 66 | 360 | 10.0 | 17.0 | 0.00 | 0.00 | 0.00 | 25 | 963.7 |
| 20260504003038 | 66 | 254 | 11.0 | 16.0 | 0.00 | 0.00 | 0.00 | 25 | 963.7 |
| 20260504002529 | 66 | 273 | 10.0 | 16.0 | 0.00 | 0.00 | 0.00 | 25 | 963.8 |
| 20260504002025 | 67 | 360 | 9.0 | 14.0 | 0.00 | 0.00 | 0.00 | 25 | 963.9 |
| 20260504001525 | 67 | 292 | 9.0 | 18.0 | 0.00 | 0.00 | 0.00 | 25 | 964.0 |
| 20260504001028 | 67 | 292 | 9.0 | 18.0 | 0.00 | 0.00 | 0.00 | 25 | 964.0 |
| 20260504000523 | 67 | 360 | 11.0 | 18.0 | 0.00 | 0.00 | 0.00 | 27 | 964.1 |
| 20260504000023 | 68 | 236 | 9.0 | 17.0 | 0.00 | 0.00 | 0.00 | 31 | 964.1 |
| 20260503235522 | 68 | 360 | 10.0 | 20.0 | 0.00 | 0.00 | 0.00 | 31 | 964.0 |
| 20260503235022 | 68 | 275 | 14.0 | 20.0 | 0.00 | 0.00 | 0.00 | 31 | 964.1 |
| 20260503234522 | 68 | 245 | 13.0 | 20.0 | 0.00 | 0.00 | 0.00 | 31 | 964.1 |
| 20260503234022 | 68 | 273 | 10.0 | 21.0 | 0.00 | 0.00 | 0.00 | 32 | 964.2 |
| 20260503233523 | 68 | 249 | 14.0 | 26.0 | 0.00 | 0.00 | 0.00 | 33 | 964.3 |
| 20260503233024 | 68 | 245 | 16.0 | 26.0 | 0.00 | 0.00 | 0.00 | 32 | 964.3 |
| 20260503232523 | 68 | 236 | 14.0 | 25.0 | 0.00 | 0.00 | 0.00 | 32 | 964.5 |
| 20260503232019 | 68 | 229 | 16.0 | 24.0 | 0.00 | 0.00 | 0.00 | 32 | 964.4 |
| 20260503231519 | 68 | 236 | 15.0 | 28.0 | 0.00 | 0.00 | 0.00 | 32 | 964.6 |
| 20260503231022 | 68 | 360 | 18.0 | 28.0 | 0.00 | 0.00 | 0.00 | 32 | 964.7 |
| 20260503230519 | 69 | 220 | 18.0 | 31.0 | 0.00 | 0.00 | 0.00 | 32 | 964.5 |
| 20260503230017 | 69 | 360 | 24.0 | 32.0 | 0.00 | 0.00 | 0.00 | 32 | 964.6 |
| 20260503225517 | 68 | 238 | 20.0 | 32.0 | 0.00 | 0.00 | 0.00 | 33 | 964.7 |
| 20260503225021 | 67 | 236 | 18.0 | 33.0 | 0.00 | 0.00 | 0.00 | 34 | 964.7 |
| 20260503224526 | 68 | 242 | 25.0 | 33.0 | 0.00 | 0.00 | 0.00 | 33 | 964.8 |
| 20260503224016 | 67 | 248 | 25.0 | 33.0 | 0.00 | 0.00 | 0.00 | 34 | 964.8 |
| 20260503223517 | 67 | 244 | 21.0 | 32.0 | 0.00 | 0.00 | 0.00 | 35 | 964.9 |
| 20260503223016 | 67 | 230 | 22.0 | 36.0 | 0.00 | 0.00 | 0.00 | 34 | 964.9 |
| 20260503222514 | 67 | 227 | 24.0 | 36.0 | 0.00 | 0.00 | 0.00 | 34 | 965.1 |
| 20260503222014 | 67 | 237 | 21.0 | 37.0 | 0.00 | 0.00 | 0.00 | 34 | 965.1 |
| 20260503221515 | 67 | 254 | 22.0 | 36.0 | 0.00 | 0.00 | 0.00 | 33 | 965.1 |
| 20260503221013 | 67 | 253 | 23.0 | 32.0 | 0.00 | 0.00 | 0.00 | 33 | 965.1 |
| 20260503220514 | 66 | 261 | 22.0 | 31.0 | 0.00 | 0.00 | 0.00 | 32 | 964.9 |
| 20260503220020 | 66 | 233 | 22.0 | 32.0 | 0.00 | 0.00 | 0.00 | 33 | 965.0 |
| 20260503215511 | 66 | 360 | 23.0 | 34.0 | 0.00 | 0.00 | 0.00 | 33 | 965.3 |
| 20260503215010 | 66 | 245 | 22.0 | 37.0 | 0.00 | 0.00 | 0.00 | 32 | 965.5 |
| 20260503214511 | 67 | 238 | 23.0 | 38.0 | 0.00 | 0.00 | 0.00 | 30 | 965.6 |
| 20260503214010 | 68 | 243 | 19.0 | 34.0 | 0.00 | 0.00 | 0.00 | 29 | 965.8 |
| 20260503213509 | 67 | 360 | 17.0 | 35.0 | 0.00 | 0.00 | 0.00 | 28 | 965.6 |
| 20260503213011 | 68 | 271 | 17.0 | 35.0 | 0.00 | 0.00 | 0.00 | 27 | 965.7 |
| 20260503212515 | 69 | 269 | 21.0 | 34.0 | 0.00 | 0.00 | 0.00 | 23 | 966.0 |
| 20260503212008 | 70 | 257 | 16.0 | 32.0 | 0.00 | 0.00 | 0.00 | 22 | 966.0 |
| 20260503211508 | 71 | 261 | 15.0 | 25.0 | 0.00 | 0.00 | 0.00 | 19 | 966.0 |
| 20260503211008 | 71 | 242 | 14.0 | 25.0 | 0.00 | 0.00 | 0.00 | 19 | 965.7 |
| 20260503210508 | 71 | 223 | 17.0 | 23.0 | 0.00 | 0.00 | 0.00 | 20 | 965.5 |
| 20260503210008 | 72 | 241 | 16.0 | 31.0 | 0.00 | 0.00 | 0.00 | 18 | 965.7 |
| 20260503205506 | 72 | 222 | 18.0 | 26.0 | 0.00 | 0.00 | 0.00 | 19 | 965.7 |
| 20260503205006 | 72 | 237 | 19.0 | 26.0 | 0.00 | 0.00 | 0.00 | 19 | 966.0 |
| 20260503204505 | 71 | 246 | 18.0 | 24.0 | 0.00 | 0.00 | 0.00 | 18 | 966.0 |
| 20260503204003 | 70 | 221 | 14.0 | 21.0 | 0.00 | 0.00 | 0.00 | 19 | 966.2 |
| 20260503203503 | 70 | 228 | 15.0 | 24.0 | 0.00 | 0.00 | 0.00 | 21 | 966.4 |
| 20260503203002 | 70 | 236 | 14.0 | 24.0 | 0.00 | 0.00 | 0.00 | 21 | 966.4 |
| 20260503202502 | 70 | 246 | 13.0 | 21.0 | 0.00 | 0.00 | 0.00 | 19 | 966.5 |
| 20260503202002 | 70 | 248 | 12.0 | 26.0 | 0.00 | 0.00 | 0.00 | 20 | 966.5 |
| 20260503201602 | 70 | 247 | 14.0 | 26.0 | 0.00 | 0.00 | 0.00 | 20 | 966.5 |
| 20260503201103 | 70 | 251 | 18.0 | 25.0 | 0.00 | 0.00 | 0.00 | 19 | 966.7 |
| 20260503200559 | 70 | 233 | 11.0 | 21.0 | 0.00 | 0.00 | 0.00 | 18 | 966.7 |
| 20260503200058 | 70 | 222 | 13.0 | 28.0 | 0.00 | 0.00 | 0.00 | 19 | 966.9 |
| 20260503195557 | 70 | 238 | 21.0 | 28.0 | 0.00 | 0.00 | 0.00 | 19 | 967.3 |
| 20260503195056 | 70 | 238 | 16.0 | 24.0 | 0.00 | 0.00 | 0.00 | 19 | 967.5 |
| 20260503194601 | 70 | 220 | 14.0 | 24.0 | 0.00 | 0.00 | 0.00 | 20 | 967.6 |
| 20260503194054 | 71 | 360 | 15.0 | 30.0 | 0.00 | 0.00 | 0.00 | 19 | 967.8 |
| 20260503193554 | 71 | 234 | 17.0 | 30.0 | 0.00 | 0.00 | 0.00 | 20 | 968.1 |
| 20260503193053 | 71 | 233 | 18.0 | 25.0 | 0.00 | 0.00 | 0.00 | 19 | 968.3 |
| 20260503192552 | 71 | 242 | 13.0 | 25.0 | 0.00 | 0.00 | 0.00 | 20 | 968.4 |
| 20260503192051 | 70 | 231 | 18.0 | 29.0 | 0.00 | 0.00 | 0.00 | 20 | 968.6 |
| 20260503191550 | 70 | 236 | 18.0 | 29.0 | 0.00 | 0.00 | 0.00 | 21 | 968.8 |
| 20260503191049 | 70 | 246 | 16.0 | 27.0 | 0.00 | 0.00 | 0.00 | 20 | 968.9 |
| 20260503190547 | 70 | 238 | 15.0 | 26.0 | 0.00 | 0.00 | 0.00 | 19 | 969.0 |
| 20260503190047 | 70 | 360 | 16.0 | 27.0 | 0.00 | 0.00 | 0.00 | 21 | 969.3 |
| 20260503185545 | 70 | 217 | 19.0 | 28.0 | 0.00 | 0.00 | 0.00 | 22 | 969.6 |